Tracking 29059 objects as of 19-Jun-2024
HD Live streaming from Space Station
objects crossing your sky now

ONEWEB-0299

Track ONEWEB-0299 now!
10-day predictions
ONEWEB-0299 is classified as:


NORAD ID: 49088
Int'l Code: 2021-075P
Perigee: 1,199.8 km
Apogee: 1,202.3 km
Inclination: 87.9 °
Period: 109.3 minutes
Semi major axis: 7572 km
RCS: Unknown
Launch date: August 21, 2021
Source: United Kingdom (UK)
Launch site: TYURATAM MISSILE AND SPACE COMPLEX (TTMTR)
Your satellite tracking list
Your tracking list is empty




NASA's NSSDC Master Catalog

Two Line Element Set (TLE):
1 49088U 21075P   24170.89038678 -.00005463  00000-0 -14124-1 0  9990
2 49088  87.9159 150.8343 0001671  88.7862 271.3461 13.17591174137697
Source of the keplerian elements: AFSPC